Date String (YYYY-MM-DD hh:mm:ss) UTC,Instrument flags,absolute air pressure of the measurement (hPa),sample flow rate (lpm),inlet stack bypass flow (lpm),air temperature of the measurement (°C),ambient temperature measured by the external sensor (°C),aerosol sample conditioner tube jacket temperature (°C),OPC LED temperature (°C),internal box temperature (°C),relative humidity of the measurement (%),span deviation,mass concentration of particles derived from Lorenz-Mie calculation of OPC scattering (μg/m³),mass concentration of particles derived from Lorenz-Mie calculation of OPC scattering (μg/m³),mass concentration of particles derived from Lorenz-Mie calculation of OPC scattering (μg/m³)
DateTimeUTC,F1_M11,P_M11,Q1_M11,Q2_M11,T1_M11,T2_M11,T3_M11,T4_M11,T5_M11,U1_M11,ZSPAN_M11,X2_M11,X0_M11,X1_M11
2023-10-15 21:00:00,SystemResetWarning,0838.9,4.98,000.00,029.0,027.6,000.0,037.3,030.7,13.1,0000.0,0003.37,0007.16,0003.12
2023-10-15 21:01:00,SystemResetWarning,0838.8,5.00,000.00,028.9,025.9,000.0,037.2,030.6,13.1,0000.0,0003.41,0007.49,0003.13
2023-10-15 21:02:00,SystemResetWarning,0838.8,5.01,000.00,028.9,025.2,000.0,037.1,030.5,13.2,0000.0,0003.43,0007.79,0003.14
2023-10-15 21:03:00,SystemResetWarning,0838.8,5.01,000.00,028.8,025.3,000.0,037.1,030.3,13.5,0000.0,0003.42,0007.77,0003.15
2023-10-15 21:04:00,SystemResetWarning,0838.8,5.00,000.00,028.7,025.6,000.0,037.1,030.2,13.5,0000.0,0003.39,0007.57,0003.15
2023-10-15 21:05:00,SystemResetWarning,0838.8,4.99,000.00,028.7,026.0,000.0,037.2,030.2,13.4,0000.0,0003.39,0007.52,0003.15
2023-10-15 21:06:00,SystemResetWarning,0838.8,5.00,000.00,028.7,026.3,000.0,037.2,030.2,13.3,0000.0,0003.39,0007.50,0003.16
2023-10-15 21:07:00,SystemResetWarning,0838.8,5.00,000.00,028.7,026.6,000.0,037.2,030.3,13.4,0000.0,0003.38,0008.01,0003.17
2023-10-15 21:08:00,SystemResetWarning,0838.8,4.99,000.00,028.7,026.9,000.0,037.2,030.4,13.5,0000.0,0003.38,0007.88,0003.17
2023-10-15 21:09:00,SystemResetWarning,0838.8,5.00,000.00,028.7,027.1,000.0,037.2,030.4,13.4,0000.0,0003.39,0007.86,0003.18
2023-10-15 21:10:00,SystemResetWarning,0838.8,5.00,000.00,028.7,027.3,000.0,037.2,030.5,13.3,0000.0,0003.40,0007.29,0003.18
2023-10-15 21:11:00,SystemResetWarning,0838.8,5.00,000.00,028.8,027.4,000.0,037.2,030.5,13.4,0000.0,0003.38,0006.60,0003.17
2023-10-15 21:12:00,SystemResetWarning,0838.8,5.00,000.00,028.8,027.6,000.0,037.2,030.6,13.4,0000.0,0003.34,0006.04,0003.16
2023-10-15 21:13:00,SystemResetWarning,0838.8,5.00,000.00,028.9,027.7,000.0,037.2,030.6,13.4,0000.0,0003.34,0005.41,0003.16
2023-10-15 21:14:00,SystemResetWarning,0838.8,5.00,000.00,028.9,027.8,000.0,037.2,030.7,13.2,0000.0,0003.34,0005.85,0003.15
2023-10-15 21:15:00,SystemResetWarning,0838.7,4.99,000.00,028.9,027.9,000.0,037.3,030.7,13.2,0000.0,0003.36,0007.41,0003.16
2023-10-15 21:16:00,SystemResetWarning,0838.8,4.98,000.00,028.9,026.6,000.0,037.2,030.6,13.1,0000.0,0003.36,0007.45,0003.16
2023-10-15 21:17:00,SystemResetWarning,0838.8,5.00,000.00,028.8,024.5,000.0,037.2,030.3,13.1,0000.0,0003.36,0007.53,0003.15
2023-10-15 21:18:00,SystemResetWarning,0838.8,5.00,000.00,028.7,024.0,000.0,037.1,030.1,13.3,0000.0,0003.36,0006.95,0003.15
2023-10-15 21:19:00,SystemResetWarning,0838.8,5.02,000.00,028.6,024.2,000.0,037.0,029.9,13.4,0000.0,0003.36,0006.90,0003.14
2023-10-15 21:20:00,SystemResetWarning,0838.8,5.00,000.00,028.5,024.7,000.0,037.0,029.9,13.4,0000.0,0003.36,0007.16,0003.13
2023-10-15 21:21:00,SystemResetWarning,0838.8,5.00,000.00,028.5,025.2,000.0,037.0,029.9,13.5,0000.0,0003.38,0007.23,0003.13
2023-10-15 21:22:00,SystemResetWarning,0838.8,4.99,000.00,028.5,025.6,000.0,037.0,030.0,13.5,0000.0,0003.40,0007.38,0003.14
2023-10-15 21:23:00,SystemResetWarning,0838.8,4.99,000.00,028.5,026.0,000.0,037.0,030.0,13.6,0000.0,0003.41,0007.53,0003.13
2023-10-15 21:24:00,SystemResetWarning,0838.8,5.00,000.00,028.5,026.3,000.0,037.0,030.1,13.6,0000.0,0003.40,0007.81,0003.12
2023-10-15 21:25:00,SystemResetWarning,0838.7,5.00,000.00,028.5,026.6,000.0,037.0,030.2,13.6,0000.0,0003.39,0008.42,0003.12
2023-10-15 21:26:00,SystemResetWarning,0838.8,4.99,000.00,028.5,026.9,000.0,037.0,030.2,13.5,0000.0,0003.39,0007.45,0003.13
2023-10-15 21:27:00,SystemResetWarning,0838.8,4.99,000.00,028.5,027.1,000.0,037.0,030.3,13.4,0000.0,0003.38,0007.43,0003.13
2023-10-15 21:28:00,SystemResetWarning,0838.8,4.99,000.00,028.6,027.2,000.0,037.0,030.3,13.5,0000.0,0003.38,0007.47,0003.13
2023-10-15 21:29:00,SystemResetWarning,0838.8,5.01,000.00,028.6,027.4,000.0,037.0,030.4,13.4,0000.0,0003.38,0007.61,0003.13
2023-10-15 21:30:00,SystemResetWarning,0838.8,5.00,000.00,028.7,027.5,000.0,037.0,030.4,13.4,0000.0,0003.39,0007.58,0003.12
2023-10-15 21:31:00,SystemResetWarning,0838.7,4.99,000.00,028.7,027.6,000.0,037.0,030.5,13.3,0000.0,0003.39,0007.46,0003.11
2023-10-15 21:32:00,SystemResetWarning,0838.8,4.99,000.00,028.7,027.7,000.0,037.1,030.5,13.3,0000.0,0003.39,0007.48,0003.11
2023-10-15 21:33:00,SystemResetWarning,0838.8,5.00,000.00,028.8,027.8,000.0,037.1,030.6,13.3,0000.0,0003.40,0007.48,0003.11
2023-10-15 21:34:00,SystemResetWarning,0838.7,5.01,000.00,028.8,027.9,000.0,037.1,030.6,13.3,0000.0,0003.42,0007.42,0003.13
2023-10-15 21:35:00,SystemResetWarning,0838.8,4.99,000.00,028.8,027.1,000.0,037.1,030.6,13.3,0000.0,0003.44,0006.99,0003.14
2023-10-15 21:36:00,SystemResetWarning,0838.7,5.00,000.00,028.7,025.1,000.0,037.1,030.3,13.3,0000.0,0003.43,0005.46,0003.15
2023-10-15 21:37:00,SystemResetWarning,0838.7,5.01,000.00,028.6,024.1,000.0,037.0,030.0,13.4,0000.0,0003.41,0005.38,0003.15
2023-10-15 21:38:00,SystemResetWarning,0838.8,5.01,000.00,028.5,024.3,000.0,036.9,029.9,13.6,0000.0,0003.42,0005.42,0003.14
2023-10-15 21:39:00,SystemResetWarning,0838.7,5.00,000.00,028.4,024.7,000.0,036.9,029.8,13.7,0000.0,0003.43,0005.43,0003.14
2023-10-15 21:40:00,SystemResetWarning,0838.8,5.00,000.00,028.4,025.1,000.0,036.9,029.8,13.8,0000.0,0003.44,0005.23,0003.14
2023-10-15 21:41:00,SystemResetWarning,0838.8,5.00,000.00,028.4,025.6,000.0,036.9,029.9,13.7,0000.0,0003.42,0005.07,0003.14
2023-10-15 21:42:00,SystemResetWarning,0838.8,5.00,000.00,028.4,025.9,000.0,036.9,029.9,13.7,0000.0,0003.42,0005.06,0003.16
2023-10-15 21:43:00,SystemResetWarning,0838.7,4.99,000.00,028.4,026.3,000.0,036.9,030.0,13.7,0000.0,0003.39,0004.91,0003.16
2023-10-15 21:44:00,SystemResetWarning,0838.7,4.99,000.00,028.4,026.6,000.0,036.9,030.1,13.7,0000.0,0003.36,0004.76,0003.15
2023-10-15 21:45:00,SystemResetWarning,0838.7,5.00,000.00,028.4,026.8,000.0,036.9,030.1,13.7,0000.0,0003.34,0005.16,0003.14
2023-10-15 21:46:00,SystemResetWarning,0838.7,5.01,000.00,028.5,027.0,000.0,036.9,030.2,13.7,0000.0,0003.33,0006.28,0003.13
2023-10-15 21:47:00,SystemResetWarning,0838.8,5.01,000.00,028.5,027.2,000.0,036.9,030.2,13.7,0000.0,0003.32,0007.73,0003.13
2023-10-15 21:48:00,SystemResetWarning,0838.8,5.00,000.00,028.5,027.3,000.0,036.9,030.3,13.7,0000.0,0003.32,0008.10,0003.11
2023-10-15 21:49:00,SystemResetWarning,0838.7,4.98,000.00,028.6,027.5,000.0,036.9,030.4,13.6,0000.0,0003.32,0008.13,0003.09
2023-10-15 21:50:00,SystemResetWarning,0838.8,5.01,000.00,028.6,027.6,000.0,036.9,030.4,13.6,0000.0,0003.33,0008.15,0003.09
2023-10-15 21:51:00,SystemResetWarning,0838.7,5.01,000.00,028.7,027.7,000.0,036.9,030.5,13.6,0000.0,0003.32,0008.11,0003.10
2023-10-15 21:52:00,SystemResetWarning,0838.8,5.00,000.00,028.7,027.8,000.0,037.0,030.5,13.5,0000.0,0003.32,0008.08,0003.10
2023-10-15 21:53:00,SystemResetWarning,0838.8,4.98,000.00,028.7,027.9,000.0,037.0,030.6,13.5,0000.0,0003.32,0008.07,0003.10
2023-10-15 21:54:00,SystemResetWarning,0838.8,5.00,000.00,028.8,027.9,000.0,037.0,030.6,13.4,0000.0,0003.32,0008.08,0003.09
2023-10-15 21:55:00,SystemResetWarning,0838.8,5.00,000.00,028.8,026.5,000.0,037.0,030.5,13.3,0000.0,0003.34,0008.17,0003.10
2023-10-15 21:56:00,SystemResetWarning,0838.8,5.01,000.00,028.7,025.2,000.0,037.0,030.4,13.3,0000.0,0003.35,0008.00,0003.11
2023-10-15 21:57:00,SystemResetWarning,0838.7,5.01,000.00,028.7,025.1,000.0,036.9,030.2,13.3,0000.0,0003.34,0007.47,0003.11
2023-10-15 21:58:00,SystemResetWarning,0838.7,4.99,000.00,028.6,025.4,000.0,036.9,030.1,13.4,0000.0,0003.34,0005.50,0003.11
2023-10-15 21:59:00,SystemResetWarning,0838.7,5.00,000.00,028.5,025.7,000.0,037.0,030.1,13.6,0000.0,0003.34,0004.73,0003.11
